This is the latest recevied weather packets stored in our database for station/object N5XJB. If no packets are shown the sender has not sent any weather packets the latest 10 day(s).
| Time | Temp. | Humidity | Pressure | Rain* | Wind** | Luminosity | Snow |
|---|---|---|---|---|---|---|---|
| 1777843323 | 28.89° C | 33% | 1020.3 hPa | 0 mm | - | 515 W/m² | - |
| 1777843023 | 28.89° C | 33% | 1020.3 hPa | 0 mm | - | 608 W/m² | - |
| 1777842716 | 28.89° C | 33% | 1020.3 hPa | 0 mm | - | 643 W/m² | - |
| 1777842412 | 28.89° C | 33% | 1020.3 hPa | 0 mm | - | 660 W/m² | - |
| 1777842109 | 28.89° C | 33% | 1020.3 hPa | 0 mm | - | 672 W/m² | - |
| 1777841501 | 28.89° C | 34% | 1020.3 hPa | 0 mm | - | 709 W/m² | - |
| 1777841198 | 28.89° C | 32% | 1020.3 hPa | 0 mm | - | 712 W/m² | - |
| 1777840592 | 28.33° C | 36% | 1020.6 hPa | 0 mm | - | 728 W/m² | - |
| 1777840290 | 28.89° C | 33% | 1020.6 hPa | 0 mm | - | 745 W/m² | - |
| 1777839987 | 28.89° C | 34% | 1021 hPa | 0 mm | - | 761 W/m² | - |
| 1777839685 | 29.44° C | 32% | 1021 hPa | 0 mm | - | 776 W/m² | - |
| 1777839383 | 28.33° C | 37% | 1021 hPa | 0 mm | - | 786 W/m² | - |
| 1777839080 | 28.89° C | 35% | 1021.3 hPa | 0 mm | - | 795 W/m² | - |
| 1777838473 | 28.89° C | 33% | 1021.3 hPa | 0 mm | - | 834 W/m² | - |
| 1777838170 | 28.33° C | 34% | 1021.3 hPa | 0 mm | - | 840 W/m² | - |
| 1777836955 | 28.89° C | 36% | 1021.6 hPa | 0 mm | - | 865 W/m² | - |
| 1777835740 | 28.33° C | 34% | 1022 hPa | 0 mm | - | 890 W/m² | - |
| 1777835437 | 28.33° C | 35% | 1022 hPa | 0 mm | - | 879 W/m² | - |
| 1777835134 | 27.78° C | 37% | 1022.3 hPa | 0 mm | - | 884 W/m² | - |
| 1777834831 | 28.33° C | 35% | 1022 hPa | 0 mm | - | 892 W/m² | - |
| 1777833014 | 27.78° C | 34% | 1022.3 hPa | 0 mm | - | 906 W/m² | - |
| 1777832410 | 28.33° C | 36% | 1022.7 hPa | 0 mm | - | 905 W/m² | - |
| 1777829075 | 27.22° C | 38% | 1024 hPa | 0 mm | - | 870 W/m² | - |
| 1777827559 | 28.33° C | 38% | 1023.7 hPa | 0 mm | - | 842 W/m² | - |
| 1777826952 | 27.22° C | 38% | 1023.7 hPa | 0 mm | - | 826 W/m² | - |
* Rain latest hour (hover to see other rain measurements)
** Current wind speed in m/s (hover to see current wind gust speed)